Regional Weather Roundup
Issued by NWS

Home | Current Version | Previous Version | Text Only | Print | Product List | Glossary Off
Versions: 1 2 3 4 5 6 7 8 9 10 11 12 13 14 15 16 17 18 19 20 21 22 23 24 25 26 27 28 29 30 31 32 33 34 35 36 37 38 39 40 41 42 43 44 45 46 47 48 49 50

000
ASUS45 KBOU 291210
RWRCO

WEATHER ROUNDUP FOR COLORADO
NATIONAL WEATHER SERVICE DENVER/BOULDER CO
600 AM MDT THU SEP 29 2016

NOTE: "FAIR" INDICATES FEW OR NO CLOUDS BELOW 12000 FEET WITH NO
SIGNIFICANT WEATHER AND/OR OBSTRUCTIONS TO VISIBILITY.

COZ001>005-013-030-031-291300-
...NORTHWEST COLORADO...

CITY           SKY/WX    TMP DP  RH WIND       PRES   REMARKS
CRAIG          FAIR      46  39  76 CALM      30.39S
HAYDEN         FAIR      50  30  46 E13       30.41S
MEEKER         FAIR      52  37  56 E7        30.39S
MOUNT WERNER   NOT AVBL
STEAMBOAT SPGS FAIR      44  33  64 CALM      30.44R
WALDEN           N/A     34  27  75 E10       30.51S WCI  26
$$

COZ006>008-011-291300-
...WEST CENTRAL VALLEYS...

CITY           SKY/WX    TMP DP  RH WIND       PRES   REMARKS
GRAND JUNCTION LGT RAIN  62  47  57 N9        30.32R
MONTROSE       FAIR      56  40  55 SE8       30.39R
EAGLE          FAIR      43  32  65 CALM      30.46S
RIFLE          CLOUDY    53  45  74 CALM      30.35R
DELTA          MOCLDY    62  40  45 E3        30.36R
NUCLA          CLOUDY    61  39  44 CALM      30.42S
$$

COZ017>023-064>068-291300-
...SOUTHWEST COLORADO...

CITY           SKY/WX    TMP DP  RH WIND       PRES   REMARKS
DURANGO        CLOUDY    52  45  77 NW6       30.45R
CORTEZ         LGT RAIN  55  52  89 S5        30.40R
PAGOSA SPRINGS MOCLDY    48  32  54 CALM      30.52S
TELLURIDE      CLOUDY    51  36  55 CALM      30.58R
WOLF CREEK PAS FAIR      39  27  60 MISG      30.76S
$$

COZ009-010-012-014-032>034-037-058>063-291300-
...CENTRAL COLORADO...

CITY           SKY/WX    TMP DP  RH WIND       PRES   REMARKS
ASPEN          FAIR      44  31  60 VRB5      30.47S
BUENA VISTA    FAIR      41  28  58 W3        30.54S
COPPER MTN     FAIR      46  21  36 S14       30.73F
BERTHOUD PASS  FAIR      37  27  65 NW12G20   30.77R
COTTONWOOD PAS FAIR      52  23  32 SW3       30.63R
GUNNISON       FAIR      41  29  62 NE5       30.53R
KREMMLING      FAIR      36  28  75 CALM      30.51R
LEADVILLE      FAIR      34  24  67 E6        30.62S WCI  29
MONARCH PASS   FAIR      41  23  48 SW10      30.84S
SALIDA         FAIR      46  28  49 NW5       30.60S
SUNLIGHT       FAIR      46  30  53 CALM      30.68S
WILKERSON PASS FAIR      43  25  49 SW9G16    30.72S
$$

COZ069>075-291300-
...SAN LUIS VALLEY/SANGRE DE CRISTO MOUNTAINS...

CITY           SKY/WX    TMP DP  RH WIND       PRES   REMARKS
ALAMOSA        FAIR      38  26  62 W3        30.51S
LA VETA PASS   FAIR      45  23  42 MISG      30.64S
SAGUACHE       NOT AVBL
$$

COZ035-036-038>040-291300-
...NORTHERN COLORADO FRONT RANGE...

CITY           SKY/WX    TMP DP  RH WIND       PRES   REMARKS
DENVER INTL AP FAIR      52  35  52 SW7       30.35S
DMNS CITY PARK   N/A     48  38  67 E9        30.35S
AURORA         PTCLDY    51  37  57 SW7       30.37S
FRONT RANGE AP NOT AVBL
ERIE MUNI ARPT FAIR      42  37  82 S3        30.35S
BOULDER MUN AP FAIR      50  37  62 SW3       30.35S
CENTENNIAL     FAIR      52  35  52 S6        30.37S
BROOMFIELD     FAIR      50  36  57 W3        30.37S
FORT COLLINS   FAIR      45  37  76 N6        30.35S
LONGMONT       FAIR      45  38  76 W3        30.36
$$

COZ041-046-047-076>085-087-088-291300-
...PIKES PEAK/PALMER DIVIDE AND SOUTHERN FOOTHILLS...

CITY           SKY/WX    TMP DP  RH WIND       PRES   REMARKS
COLO. SPRINGS  FAIR      46  37  71 N7        30.45S
A. F. ACADEMY  FAIR      40  34  79 NW7       30.45S
SCHRIEVER AFB  NOT AVBL
ELLICOTT       NOT AVBL
FALCON         FAIR      43  36  76 CALM      30.48S
FORT CARSON    FAIR      45  35  70 N1        30.42S
LIMON          FAIR      39  37  92 S3        30.41F
MONUMENT HILL  FAIR      45  36  70 S13       30.46F
TRINIDAD       FAIR      55  28  35 SW15      30.40R
$$

COZ042>045-048>051-090-091-291300-
...NORTHEAST COLORADO...

CITY           SKY/WX    TMP DP  RH WIND       PRES   REMARKS
GREELEY ARPT   FAIR      46  37  71 CALM      30.35S
AKRON          FAIR      53  39  59 S15       30.37S
BURLINGTON     FAIR      47  38  71 S12       30.40S
WRAY           NOT AVBL
STERLING       FAIR      45  39  81 CALM      30.35S
HOLYOKE        FAIR      41  36  81 SE5       30.39S
FORT MORGAN    FAIR      46  38  74 SE6       30.37S
$$

COZ086-089-092>099-291300-
...SOUTHEAST COLORADO...

CITY           SKY/WX    TMP DP  RH WIND       PRES   REMARKS
PUEBLO         FAIR      49  38  65 N7        30.38R
LA JUNTA       FAIR      49  40  71 E8        30.35S
LAMAR          FAIR      43  38  82 E9        30.37S
SPRINGFIELD      N/A     44  39  82 S6        30.41R
$$



USA.gov is the U.S. government's official web portal to all federal, state and local government web resources and services.